K2MIT Weather Reports


Display with metric or nautical units.
time (UTC)temp
F
wind
direction
speed
MPH
gust
MPH
rain 1hr
in
rain 24hr
in
rain mn
in
humidity
%
barometer
mb
20260508154534 59 229 4.0 12.0 0.00 0.02 0.02 40 1011.9
20260508153046 59 207 2.0 10.0 0.00 0.02 0.02 41 1011.9
20260508151536 58 0 2.0 12.0 0.00 0.02 0.02 41 1011.9
20260508150036 58 206 3.0 11.0 0.00 0.02 0.02 41 1012.0
20260508144534 57 250 3.0 12.0 0.00 0.02 0.02 43 1012.0
20260508143042 57 294 3.0 10.0 0.00 0.02 0.02 47 1012.4
20260508141548 55 22 5.0 12.0 0.00 0.02 0.02 49 1012.3
20260508140033 54 264 3.0 8.0 0.00 0.02 0.02 52 1012.3
20260508134535 53 316 6.0 10.0 0.00 0.02 0.02 54 1012.2
20260508133034 52 300 4.0 9.0 0.00 0.02 0.02 59 1012.2
20260508131532 52 328 3.0 9.0 0.00 0.02 0.02 61 1012.2
20260508130033 51 299 3.0 8.0 0.00 0.02 0.02 65 1012.3
20260508124533 50 309 2.0 8.0 0.00 0.02 0.02 68 1012.5
20260508123035 49 292 5.0 10.0 0.00 0.02 0.02 70 1012.7
20260508121553 49 250 2.0 8.0 0.00 0.02 0.02 72 1012.6
20260508120036 48 321 2.0 10.0 0.00 0.02 0.02 74 1012.7
20260508114531 48 273 4.0 8.0 0.00 0.02 0.02 77 1012.4
20260508113030 47 263 3.0 7.0 0.00 0.02 0.02 80 1012.3
20260508111529 46 267 2.0 5.0 0.00 0.02 0.02 83 1012.1
20260508110036 45 290 1.0 3.0 0.00 0.02 0.02 84 1012.0
20260508104532 45 0 0.0 2.0 0.00 0.02 0.02 85 1011.9
20260508103033 44 348 0.0 4.0 0.00 0.02 0.02 84 1011.9
20260508101535 44 348 0.0 0.0 0.00 0.02 0.02 84 1011.8
20260508100029 45 0 0.0 0.0 0.00 0.02 0.02 84 1011.5
20260508094529 45 0 0.0 0.0 0.00 0.03 0.02 84 1011.7
20260508093030 45 0 0.0 0.0 0.00 0.03 0.02 83 1011.5
20260508091530 45 0 0.0 2.0 0.00 0.03 0.02 83 1011.4
20260508090030 45 327 1.0 2.0 0.00 0.03 0.02 82 1012.0
20260508084532 45 0 1.0 5.0 0.00 0.08 0.02 82 1011.2
20260508083113 45 305 2.0 5.0 0.00 0.08 0.02 82 1011.0
20260508081532 45 277 0.0 4.0 0.00 0.08 0.02 81 1011.1
20260508080032 45 320 1.0 4.0 0.00 0.08 0.02 81 1011.0
20260508074534 45 344 2.0 8.0 0.00 0.12 0.02 80 1011.0
20260508073033 45 352 1.0 6.0 0.01 0.12 0.02 79 1011.2
20260508071533 45 320 1.0 2.0 0.02 0.12 0.02 77 1011.3
20260508070029 46 320 1.0 3.0 0.02 0.12 0.02 74 1011.8
20260508064544 46 290 4.0 12.0 0.02 0.17 0.02 71 1011.7
20260508063037 48 203 6.0 13.0 0.01 0.16 0.01 65 1011.7
20260508061532 49 300 2.0 7.0 0.00 0.15 0.00 54 1011.2
20260508060034 48 307 2.0 4.0 0.00 0.15 0.00 61 1011.1
20260508054535 48 16 0.0 1.0 0.00 0.16 0.00 58 1009.3
20260508053033 48 0 0.0 0.0 0.00 0.16 0.00 58 1009.5
20260508051539 48 58 2.0 4.0 0.00 0.16 0.00 58 1009.5
20260508050041 48 0 0.0 0.0 0.00 0.16 0.00 63 1009.4
20260508044535 48 0 0.0 0.0 0.00 0.16 0.00 60 1009.3
20260508043036 48 0 0.0 2.0 0.00 0.16 0.00 61 1009.1
20260508041534 48 0 0.0 0.0 0.00 0.16 0.00 62 1009.1
20260508040035 48 0 0.0 0.0 0.00 0.16 0.00 63 1009.0
20260508034534 48 0 0.0 0.0 0.00 0.16 0.16 62 1009.2
20260508033034 48 0 0.0 0.0 0.00 0.16 0.16 61 1009.3
20260508031533 49 0 0.0 0.0 0.00 0.16 0.16 61 1009.2
20260508030046 49 0 0.0 0.0 0.00 0.16 0.16 60 1009.2
20260508024536 49 0 0.0 0.0 0.00 0.18 0.16 59 1009.2
20260508023037 50 0 0.0 0.0 0.00 0.18 0.16 58 1009.1
20260508021535 50 0 0.0 2.0 0.00 0.18 0.16 59 1009.2
20260508020033 50 0 0.0 2.0 0.00 0.18 0.16 58 1009.0
20260508014535 51 0 0.0 0.0 0.00 0.26 0.16 56 1009.1
20260508013033 52 0 0.0 0.0 0.00 0.26 0.16 50 1009.1
20260508011547 53 0 0.0 2.0 0.00 0.26 0.16 51 1008.9
20260508010034 53 0 0.0 0.0 0.00 0.26 0.16 50 1008.7
20260508004545 54 0 0.0 0.0 0.00 0.26 0.16 48 1008.6
20260508003039 55 0 0.0 0.0 0.00 0.26 0.16 45 1008.2
20260508001539 56 0 0.0 0.0 0.00 0.26 0.16 41 1008.1
20260508000033 58 0 0.0 3.0 0.00 0.26 0.16 38 1008.0
20260507234534 59 317 0.0 3.0 0.00 0.26 0.16 35 1007.8
20260507233034 59 313 2.0 6.0 0.00 0.26 0.16 35 1007.7
20260507231534 60 264 3.0 9.0 0.00 0.26 0.16 33 1007.6
20260507230036 61 304 2.0 11.0 0.00 0.26 0.16 33 1007.5
20260507224530 62 311 2.0 13.0 0.00 0.26 0.16 31 1007.4
20260507223032 62 296 3.0 9.0 0.00 0.26 0.16 31 1007.4
20260507221534 63 337 3.0 10.0 0.00 0.26 0.16 30 1007.5
20260507220033 64 326 3.0 10.0 0.00 0.26 0.16 29 1007.6
20260507214531 64 349 4.0 12.0 0.00 0.26 0.16 29 1007.4
20260507213032 65 9 3.0 11.0 0.00 0.26 0.16 29 1007.2
20260507211530 65 326 2.0 10.0 0.00 0.26 0.16 31 1007.1
20260507210032 63 236 5.0 13.0 0.00 0.26 0.16 30 1007.1
20260507204534 64 336 4.0 11.0 0.00 0.27 0.16 28 1007.1
20260507203035 64 285 3.0 14.0 0.00 0.27 0.16 29 1007.3
20260507201537 66 16 2.0 13.0 0.00 0.27 0.16 31 1007.2
20260507200037 64 284 2.0 9.0 0.00 0.27 0.16 31 1007.3
20260507194534 65 277 5.0 12.0 0.00 0.29 0.16 29 1007.4
20260507193035 67 327 2.0 9.0 0.00 0.29 0.16 31 1007.6
20260507191534 63 301 3.0 10.0 0.00 0.29 0.16 31 1007.6
20260507190040 64 248 5.0 10.0 0.00 0.29 0.16 30 1007.9
20260507184537 65 360 3.0 10.0 0.00 0.30 0.16 29 1008.0
20260507183040 62 249 3.0 13.0 0.00 0.30 0.16 31 1008.3
20260507181533 66 277 2.0 10.0 0.00 0.30 0.16 29 1008.5
20260507180035 64 32 3.0 11.0 0.00 0.30 0.16 30 1008.6
20260507174538 63 36 2.0 11.0 0.00 0.33 0.16 34 1008.8
20260507173035 62 287 2.0 7.0 0.00 0.33 0.16 32 1008.9
20260507171534 61 348 3.0 12.0 0.00 0.33 0.16 34 1009.1
20260507170036 60 294 5.0 15.0 0.00 0.33 0.16 37 1009.3
20260507164533 61 330 1.0 7.0 0.00 0.35 0.16 35 1009.6
20260507163034 59 340 3.0 10.0 0.00 0.35 0.16 38 1009.7
20260507161531 60 307 2.0 11.0 0.00 0.35 0.16 32 1009.8
20260507160030 61 334 3.0 16.0 0.00 0.35 0.16 33 1009.9